Content
SEND FEEDBACK

Daily
Averages
Monthly
Summary
Canada

VANCOUVER, BRITISH COLUMBIA


Home > North America > Canada > British Columbia
Elevation: 7 feet     Latitude: 49 11N     Longitude: 123 10W

WEATHER
 
SELECT A DAY
Number of Records: 252,883;   Date Range: 5/15/97 - 10/18/14
 
SHARE

PRINT THIS DATA

[ ← Previous Day ]
WEATHER ALMANAC - APRIL 18, 2013
[ Next Day → ]
[ °C ]   °F
Weather ElementAverageHighLow
Temperature46 °F48.2 °F (12:55 pm)42.8 °F (6:15 am)
Dewpoint43.3 °F46.4 °F (8:15 pm)39.2 °F (12:35 am)
Humidity90.2 %100 % (9:35 am)76 % (12:35 am)
Barometer30.35 in30.42 in (8:15 am)30.16 in (11:15 pm)
Wind Speed6.6 mph12.7 mph (10:35 pm)
Wind Gust19.6 mph (11:15 pm)
Weather ElementAverage
Visibility6.8 mi
Wind DirectionSSE (167.6 °)

Weather ElementTotal
Precipitation0.08 in
Heating Degree Days19.5 (Base 65)
Averaged from 59 records on April 18, 2013
WEATHER CONDITIONS BREAKOUT
WIND DIRECTION BREAKOUT
WEATHER BY HOUR - APRIL 18, 2013
[ °C ]   °F
Local TimeTemperatureDewpointHumidityBarometerVisibilityWind DirectionWind SpeedGust SpeedPrecipitationEventsConditions
12:35 AM46.4 °F39.2 °F76 %30.40 in10.0 miCalmOvercast
12:55 AM46.4 °F39.2 °F76 %30.41 in8.0 miSW (220°)4.6 mphRainLight Rain
1:15 AM46.4 °F39.2 °F76 %30.41 in9.0 miCalmRainLight Rain
1:35 AM46.4 °F41.0 °F81 %30.41 in8.0 miSSW (210°)6.9 mphRainLight Rain
1:55 AM44.6 °F41.0 °F87 %30.41 in9.0 miSouth (190°)4.6 mphRainLight Rain
2:15 AM44.6 °F41.0 °F87 %30.41 in10.0 miCalmRainLight Rain
2:35 AM44.6 °F41.0 °F87 %30.41 in8.0 miSSW (210°)4.6 mphRainLight Rain
2:55 AM44.6 °F41.0 °F87 %30.41 in8.0 miSSW (210°)4.6 mphRainLight Rain
3:15 AM44.6 °F41.0 °F87 %30.41 in9.0 miCalmOvercast
3:35 AM44.6 °F41.0 °F87 %30.41 in10.0 miSSW (200°)3.5 mphMostly Cloudy
3:55 AM44.6 °F41.0 °F87 %30.41 in7.0 miCalmRainLight Rain
4:15 AM44.6 °F41.0 °F87 %30.40 in6.0 miCalmRainLight Rain
4:35 AM44.6 °F41.0 °F87 %30.40 in8.0 miSSW (210°)3.5 mphRainLight Rain
4:55 AM44.6 °F42.8 °F93 %30.41 in10.0 miSSW (200°)5.8 mphMostly Cloudy
5:15 AM44.6 °F42.8 °F93 %30.41 in8.0 miSSW (200°)4.6 mphRainLight Rain
5:55 AM44.6 °F42.8 °F93 %30.41 in5.0 miSSW (200°)6.9 mphRainLight Rain
6:15 AM42.8 °F41.0 °F93 %30.41 in6.0 miSouth (190°)9.2 mphRainLight Rain
6:55 AM42.8 °F41.0 °F93 %30.41 in5.0 miSouth (190°)6.9 mphRainLight Rain
7:15 AM42.8 °F41.0 °F93 %30.41 in1.8 miSouth (190°)9.2 mphRainLight Rain
7:55 AM44.6 °F42.8 °F93 %30.41 in3.0 miSSW (210°)5.8 mphRainLight Rain
8:15 AM44.6 °F42.8 °F93 %30.42 in2.0 miSouth (190°)4.6 mphRainLight Rain
8:35 AM44.6 °F42.8 °F93 %30.42 in1.5 miSouth (180°)5.8 mphRainLight Rain
8:55 AM44.6 °F42.8 °F93 %30.42 in2.0 miSouth (190°)6.9 mphRainLight Rain
9:15 AM44.6 °F42.8 °F93 %30.42 in2.0 miSouth (170°)4.6 mphOvercast
9:35 AM44.6 °F44.6 °F100 %30.42 in3.0 miSouth (170°)5.8 mphOvercast
9:55 AM44.6 °F42.8 °F93 %30.42 in3.0 miSouth (170°)6.9 mphOvercast
10:15 AM44.6 °F42.8 °F93 %30.41 in10.0 miSouth (170°)5.8 mphOvercast
10:35 AM46.4 °F42.8 °F87 %30.41 in10.0 miSouth (190°)10.4 mphMostly Cloudy
10:55 AM46.4 °F42.8 °F87 %30.42 in10.0 miSouth (190°)10.4 mph16.1 mphMostly Cloudy
11:15 AM46.4 °F42.8 °F87 %30.42 in10.0 miSouth (190°)8.1 mphOvercast
11:35 AM46.4 °F41.0 °F81 %30.42 in10.0 miSouth (190°)10.4 mphOvercast
11:55 AM46.4 °F41.0 °F81 %30.42 in10.0 miSouth (170°)4.6 mphOvercast
12:55 PM48.2 °F42.8 °F82 %30.38 in10.0 miSouth (180°)10.4 mph16.1 mphOvercast
1:15 PM48.2 °F42.8 °F82 %30.38 in8.0 miSouth (180°)8.1 mphRainLight Rain
2:15 PM48.2 °F44.6 °F87 %30.37 in7.0 miSouth (180°)9.2 mphRainLight Rain
2:35 PM48.2 °F44.6 °F87 %30.36 in5.0 miSouth (170°)5.8 mphRainLight Rain
3:15 PM46.4 °F44.6 °F93 %30.35 in5.0 miSouth (170°)5.8 mphRainLight Rain
3:35 PM46.4 °F44.6 °F93 %30.35 in4.0 miSouth (180°)8.1 mphRainLight Rain
3:55 PM46.4 °F44.6 °F93 %30.34 in5.0 miSouth (170°)6.9 mphRainLight Rain
4:15 PM46.4 °F44.6 °F93 %30.34 in4.0 miSouth (180°)8.1 mphRainLight Rain
4:35 PM46.4 °F44.6 °F93 %30.33 in4.0 miSouth (180°)6.9 mphRainLight Rain
4:55 PM46.4 °F44.6 °F93 %30.32 in4.0 miSouth (180°)4.6 mphRainLight Rain
5:15 PM46.4 °F44.6 °F93 %30.30 in4.0 miSouth (180°)9.2 mph0.01 inRainRain
5:35 PM46.4 °F44.6 °F93 %30.29 in4.0 miSSE (160°)6.9 mph0.02 inRainRain
5:55 PM46.4 °F44.6 °F93 %30.28 in5.0 miSouth (170°)8.1 mph0.02 inRainLight Rain
6:15 PM46.4 °F44.6 °F93 %30.28 in5.0 miSouth (170°)6.9 mph16.1 mph0.01 inRainLight Rain
6:35 PM46.4 °F44.6 °F93 %30.27 in5.0 miSouth (180°)8.1 mph0.01 inRainLight Rain
8:15 PM46.4 °F46.4 °F100 %30.24 in7.0 miSouth (180°)5.8 mphRainLight Rain
8:35 PM46.4 °F46.4 °F100 %30.23 in5.0 miSSW (200°)6.9 mphRainRain
8:55 PM46.4 °F46.4 °F100 %30.23 in6.0 miSouth (180°)6.9 mph0.01 inRainLight Rain
9:15 PM48.2 °F46.4 °F93 %30.22 in8.0 miSouth (190°)9.2 mphRainLight Rain
9:35 PM48.2 °F46.4 °F93 %30.21 in10.0 miSouth (180°)8.1 mphRainLight Rain
9:55 PM48.2 °F46.4 °F93 %30.21 in9.0 miSouth (190°)10.4 mphRainLight Rain
10:15 PM48.2 °F46.4 °F93 %30.20 in9.0 miSouth (180°)6.9 mphRainLight Rain
10:35 PM48.2 °F46.4 °F93 %30.18 in10.0 miSouth (190°)12.7 mph17.3 mphRainLight Rain
10:55 PM48.2 °F46.4 °F93 %30.17 in10.0 miSSW (200°)11.5 mphRainLight Rain
11:15 PM48.2 °F46.4 °F93 %30.16 in7.0 miSouth (190°)11.5 mph19.6 mphRainLight Rain
11:35 PM48.2 °F46.4 °F93 %30.16 in8.0 miSouth (190°)10.4 mph18.4 mphRainLight Rain
11:55 PM48.2 °F46.4 °F93 %30.16 in8.0 miSouth (190°)9.2 mph16.1 mphRainLight Rain
Hourly data recorded from CZBB, located miles away from Vancouver, British Columbia







STORIES FROM OUR PARTNERS